This is the latest recevied weather packets stored in our database for station/object WA1TYB-13. If no packets are shown the sender has not sent any weather packets the latest 10 day(s).
| Time | Temp. | Humidity | Pressure | Rain* | Wind** | Luminosity | Snow |
|---|---|---|---|---|---|---|---|
| 1777997492 | 6.67° C | 47% | 1020.3 hPa | 0 mm | - | 360 W/m² | - |
| 1777997190 | 7.22° C | 47% | 1019.9 hPa | 0 mm | - | 329 W/m² | - |
| 1777996887 | 6.67° C | 47% | 1020 hPa | 0 mm | - | 287 W/m² | - |
| 1777996583 | 6.67° C | 48% | 1019.9 hPa | 0 mm | - | 312 W/m² | - |
| 1777996280 | 6.67° C | 49% | 1020.2 hPa | 0 mm | - | 277 W/m² | - |
| 1777995976 | 6.11° C | 50% | 1020 hPa | 0 mm | - | 275 W/m² | - |
| 1777995672 | 6.11° C | 51% | 1019.9 hPa | 0 mm | - | 247 W/m² | - |
| 1777995369 | 6.11° C | 51% | 1020 hPa | 0 mm | - | 303 W/m² | - |
| 1777995067 | 6.11° C | 51% | 1020.2 hPa | 0 mm | - | 279 W/m² | - |
| 1777994763 | 5.56° C | 53% | 1019.9 hPa | 0 mm | - | 248 W/m² | - |
| 1777994459 | 5.56° C | 53% | 1020 hPa | 0 mm | - | 247 W/m² | - |
| 1777994154 | 5.56° C | 53% | 1020 hPa | 0 mm | - | 219 W/m² | - |
| 1777993852 | 5.56° C | 54% | 1019.9 hPa | 0 mm | - | 193 W/m² | - |
| 1777993548 | 5° C | 55% | 1020.4 hPa | 0 mm | - | 178 W/m² | - |
| 1777993244 | 5° C | 55% | 1020 hPa | 0 mm | - | 203 W/m² | - |
| 1777992941 | 4.44° C | 58% | 1020.4 hPa | 0 mm | - | 163 W/m² | - |
| 1777992639 | 4.44° C | 59% | 1020.2 hPa | 0 mm | - | 153 W/m² | - |
| 1777992337 | 4.44° C | 62% | 1020.2 hPa | 0 mm | - | 148 W/m² | - |
| 1777992034 | 4.44° C | 62% | 1020.3 hPa | 0 mm | - | 141 W/m² | - |
| 1777991731 | 3.89° C | 63% | 1020.3 hPa | 0 mm | - | 140 W/m² | - |
| 1777991428 | 3.89° C | 62% | 1019.9 hPa | 0 mm | - | 138 W/m² | - |
| 1777991126 | 3.89° C | 62% | 1020 hPa | 0 mm | - | 134 W/m² | - |
| 1777990823 | 3.89° C | 62% | 1020 hPa | 0 mm | - | 130 W/m² | - |
| 1777990520 | 3.33° C | 63% | 1019.9 hPa | 0 mm | - | 117 W/m² | - |
| 1777989914 | 3.33° C | 62% | 1019.8 hPa | 0 mm | - | 112 W/m² | - |
* Rain latest hour (hover to see other rain measurements)
** Current wind speed in m/s (hover to see current wind gust speed)